Weather History for Tanana, AK

Change the Weather History Date:

Sunday, September 23, 2012

  Actual Average Record
Temperature  
Mean Temperature 46 °F -  
Max Temperature 52 °F 46 °F 59 °F (1976)
Min Temperature 41 °F 29 °F 7 °F (1992)
Degree Days  
Heating Degree Days 20    
Moisture  
Dew Point 43 °F    
Average Humidity 87    
Maximum Humidity 100    
Minimum Humidity 73    
Precipitation  
Precipitation 0.23 in - - ()
Sea Level Pressure  
Sea Level Pressure 29.51 in    
Wind  
Wind Speed 4 mph (West)    
Max Wind Speed 10 mph    
Max Gust Speed 22 mph    
Visibility 10 miles    
Events Rain    
Averages and records for this station are not official NWS values.
T = Trace of Precipitation, MM = Missing Value Source: NWS Daily Summary

Daily Weather History Graph

Daily Weather History Graph

Search for Another Location

Airport:

Trip Planner

Search our weather history database for the weather conditions in past years. The results will help you decide how hot, cold, wet, or windy it might be!

Date:

Astronomy

Sep. 23, 2012 Rise Set
Actual Time 7:56 AM AKDT 8:03 PM AKDT
Civil Twilight 7:06 AM AKDT 8:52 PM AKDT
Nautical Twilight 6:05 AM AKDT 9:52 PM AKDT
Astronomical Twilight 4:55 AM AKDT 11:01 PM AKDT
Moon 6:15 PM AKDT (9/23) No Moon Set
Length of Visible Light 13h 46m
Length of Day
12h 06m
First Quarter, 61% of the Moon is Illuminated
Sep 23
First Quarter
Sep 29
Full
Oct 7
Last Quarter
Oct 15
New
Oct 21
First Quarter

Hourly Weather History & Observations

Time (AKDT) Temp. Windchill Dew Point Humidity Pressure Visibility Wind Dir Wind Speed Gust Speed Precip Events Conditions
12:52 AM 48.0 °F - 42.1 °F 80% 29.34 in 10.0 mi NNE 3.5 mph - N/A   Scattered Clouds
1:52 AM 50.0 °F - 42.1 °F 74% 29.33 in 10.0 mi NNE 4.6 mph - N/A   Overcast
2:52 AM 50.0 °F - 43.0 °F 77% 29.34 in 10.0 mi Calm Calm - 0.00 in   Overcast
3:52 AM 50.0 °F - 44.1 °F 80% 29.38 in 10.0 mi Calm Calm - 0.01 in Rain Light Rain
4:52 AM 48.0 °F - 46.0 °F 93% 29.39 in 9.0 mi Calm Calm - 0.06 in Rain Light Rain
5:52 AM 46.9 °F - 46.0 °F 97% 29.40 in 10.0 mi SSE 3.5 mph - 0.04 in Rain Light Rain
6:52 AM 48.9 °F - 46.0 °F 90% 29.37 in 10.0 mi NE 10.4 mph - 0.08 in Rain Light Rain
7:52 AM 48.2 °F - 46.4 °F 93% 29.36 in 10.0 mi East 3.5 mph - N/A   Mostly Cloudy
8:52 AM 48.0 °F - 46.0 °F 93% 29.39 in 10.0 mi East 3.5 mph - N/A   Mostly Cloudy
9:31 AM 46.4 °F 43.5 °F 46.4 °F 100% 29.39 in 10.0 mi NE 5.8 mph - N/A   Mostly Cloudy
9:52 AM 48.0 °F - 46.0 °F 93% 29.41 in 10.0 mi Calm Calm - N/A   Mostly Cloudy
10:52 AM 48.9 °F - 46.0 °F 90% 29.43 in 10.0 mi Calm Calm - 0.00 in Rain Light Rain
11:52 AM 50.0 °F - 48.0 °F 93% 29.45 in 10.0 mi Calm Calm - 0.01 in   Mostly Cloudy
12:17 PM 48.2 °F - 46.4 °F 93% 29.47 in 10.0 mi Calm Calm - N/A   Mostly Cloudy
12:52 PM 48.9 °F - 46.9 °F 93% 29.47 in 9.0 mi NNW 3.5 mph - 0.02 in Rain Light Rain
1:52 PM 48.0 °F - 46.9 °F 96% 29.48 in 10.0 mi SW 8.1 mph - 0.00 in   Mostly Cloudy
2:10 PM 48.2 °F - 46.4 °F 93% 29.48 in 10.0 mi Variable 3.5 mph - 0.00 in Rain Light Rain
2:52 PM 48.0 °F - 45.0 °F 89% 29.51 in 10.0 mi West 8.1 mph - 0.00 in   Overcast
3:42 PM 48.2 °F - 44.6 °F 87% 29.53 in 10.0 mi West 8.1 mph - N/A   Overcast
3:52 PM 48.0 °F - 44.1 °F 86% 29.55 in 10.0 mi West 5.8 mph - N/A   Overcast
4:06 PM 48.2 °F - 44.6 °F 87% 29.54 in 10.0 mi West 8.1 mph 16.1 mph N/A   Overcast
4:52 PM 46.9 °F - 43.0 °F 86% 29.57 in 10.0 mi West 5.8 mph - N/A   Overcast
5:00 PM 46.4 °F 44.3 °F 42.8 °F 87% 29.57 in 7.0 mi Variable 4.6 mph - 0.00 in Rain Light Rain
5:40 PM 46.4 °F 41.5 °F 41.0 °F 81% 29.59 in 10.0 mi West 10.4 mph - 0.00 in   Overcast
5:52 PM 45.0 °F 39.7 °F 41.0 °F 86% 29.60 in 6.0 mi WSW 10.4 mph 18.4 mph 0.01 in Rain Light Rain
6:04 PM 44.6 °F 40.2 °F 39.2 °F 81% 29.60 in 7.0 mi WSW 8.1 mph 17.3 mph 0.00 in   Overcast
6:52 PM 45.0 °F 40.6 °F 37.9 °F 76% 29.63 in 10.0 mi West 8.1 mph - 0.00 in   Overcast
7:31 PM 44.6 °F 40.2 °F 37.4 °F 76% 29.64 in 10.0 mi West 8.1 mph 21.9 mph 0.00 in Rain Light Rain
7:52 PM 43.0 °F 37.7 °F 37.0 °F 80% 29.67 in 10.0 mi West 9.2 mph 17.3 mph 0.00 in Rain Light Rain
8:52 PM 42.1 °F 38.4 °F 37.9 °F 85% 29.71 in 10.0 mi West 5.8 mph - 0.00 in   Overcast
9:52 PM 42.1 °F 37.7 °F 37.0 °F 82% 29.75 in 10.0 mi SW 6.9 mph - N/A   Overcast
10:52 PM 41.0 °F 36.4 °F 37.0 °F 86% 29.78 in 10.0 mi SW 6.9 mph - N/A   Overcast
11:52 PM 41.0 °F 35.8 °F 33.1 °F 73% 29.81 in 10.0 mi WSW 8.1 mph 17.3 mph N/A   Overcast